{"data":{"norad_id":63368,"intl_designator":"2025-063F","name":"STARLINK-33578","alt_names":[],"object_type":"PAYLOAD","status":"ACTIVE","operator":null,"country":"US","launch_date":"2025-03-26","launch_site_code":"AFWTR","launch_vehicle":null,"mission":null,"orbit_class":"UNKNOWN","rcs_meters":null,"size_class":null,"mass_kg":null,"dimensions":null,"purposes":["comms"],"wikipedia_slug":null,"has_3d_model":false,"image_url":null,"decayed_at":null,"tle_current":{"epoch":"2026-05-24T23:13:34.913280Z","epoch_age_seconds":78136,"freshness":"FRESH","line1":"1 63368U 25063F   26144.96776520  .00026215  00000+0  89403-3 0  9993","line2":"2 63368  53.1581  55.6257 0001011  73.5916 286.5196 15.30202419 66416","mean_motion":15.30202419,"eccentricity":0.0001011,"inclination_deg":53.1581,"raan_deg":55.6257,"arg_perigee_deg":73.5916,"mean_anomaly_deg":286.5196,"bstar":0.00089403,"rev_number":6641,"period_min":94.105196941268,"perigee_km":474.51497356686,"apogee_km":475.90071989487,"semimajor_km":6853.3448467309,"source":"CELESTRAK","updated_at":"2026-05-25T13:38:19.962424Z"}}}